Location: Zihuatanejo
(17.6330°N, 101.5500°W)
Time: 13:27:59
(UTC-05:00)

Daily predictions for brighter satellites

Satellite Brightness Start Highest point End
(mag) Time Altitude Azimuth Time Altitude Azimuth Time Altitude Azimuth
Chandra Rocket (1) 4.2 20:27:45 10° W 20:32:29 48° SSW 20:49:05 10° SE
NATO 3D Rocket 4.5 20:36:22 10° W 20:42:08 70° N 20:50:28 10° ENE
Helios 1A 3.0 20:43:07 10° SSE 20:47:21 89° E 20:51:35 10° NNW
Cosmos 1655 Rocket 4.4 20:41:49 10° SSE 20:47:38 43° E 20:53:26 10° NNE
Hubble Space Telescope 1.9 20:45:03 10° SSW 20:48:28 25° SSE 20:51:54 10° E
Abrixas 3.6 20:45:43 10° WNW 20:48:40 41° SW 20:51:35 10° SSE
deb Kosmos-1763 4.1 20:45:24 10° S 20:49:14 77° ESE 20:53:06 10° NNE
Cosmos 1842 Rocket 4.0 20:44:51 10° N 20:49:17 68° W 20:53:43 10° S
Cosmos 1378 3.5 20:47:17 10° SSE 20:50:50 42° E 20:54:22 10° NNE
Cosmos 1707 4.2 20:49:30 10° SSW 20:53:10 42° W 20:56:50 10° NNW
Cosmos 2221 3.2 20:52:45 10° NNE 20:56:40 35° E 21:00:36 10° SSE
FUSE 4.2 20:51:31 10° WNW 20:56:50 61° SSW 21:01:59 11° ESE
SJ-6B 4.4 20:53:12 10° S 20:56:58 38° W 21:00:49 10° NNW
Resurs 01 Rocket 1.7 20:54:58 10° S 20:59:25 82° W 21:03:50 10° NNW
Cosmos 1766 Rocket 3.5 21:00:41 10° S 21:05:07 79° E 21:09:32 10° N
OAO 2 Rocket 3.7 21:02:04 10° WSW 21:07:20 75° NNW 21:12:40 10° NE
Cosmos 1763 Rocket 3.9 21:02:20 10° NNW 21:07:23 63° WSW 21:12:23 10° S
ATLAS 2A CENTAUR R/B 3.2 21:02:09 10° SW 21:08:03 18° S 21:10:16 13° SE
USA 186 2.7 21:15:04 17° E 21:15:10 17° ENE 21:16:50 10° NNE
Ariane H10 4.3 21:11:00 10° SW 21:15:30 38° SSE 21:32:04 13° ESE
USA 229 DEB 4.0 21:09:27 10° SSW 21:16:20 73° WNW 21:23:15 10° NNE
USA 229 4.0 21:09:33 10° SSW 21:16:26 74° WNW 21:23:22 10° NNE
CZ-4B DEB 3.0 21:15:25 10° S 21:18:44 73° W 21:22:03 10° NNW
ASTRO E2 3.3 21:17:49 10° NW 21:21:43 48° NNE 21:24:19 19° E
Cosmos 540 Rocket 3.8 21:17:22 10° N 21:22:17 45° ENE 21:25:48 18° SE
ALOS 2.5 21:20:02 14° SSE 21:23:53 50° ENE 21:28:22 10° N
XTE 4.5 21:26:52 10° WNW 21:29:40 31° N 21:31:32 17° ENE
Cosmos 371 Rocket 4.4 21:27:26 10° NNE 21:31:23 25° ENE 21:32:44 22° E
CZ-4 DEB 3.6 21:31:34 30° E 21:32:06 32° ENE 21:34:59 10° NNE
Cosmos 2219 3.8 21:29:20 10° SSE 21:34:29 35° ESE 21:39:37 10° NE
Tiangong 1 3.7 21:32:41 10° W 21:35:11 22° NW 21:37:40 10° NNE
NOSS 3-1 (A) 4.0 21:31:37 10° S 21:36:28 29° ESE 21:41:27 10° NE
Aurora 2 Rocket 3.3 21:33:04 10° W 21:36:50 29° SSW 21:38:06 23° S
H-2A R/B 3.1 21:31:15 10° W 21:36:55 29° NW 21:39:03 10° NNE
Cosmos 1441 Rocket 3.0 21:34:39 10° S 21:38:28 79° E 21:42:15 10° N
Cosmos 2266 Rocket 4.4 21:34:26 17° SSE 21:38:56 40° E 21:44:44 10° NNE
SWIFT 2.2 21:35:15 10° W 21:39:27 82° SSW 21:41:11 34° ESE
OTV 4 0.4 21:38:45 10° SW 21:41:42 82° NW 21:42:58 31° NE
YAOGAN 11 4.0 21:52:35 43° SE 21:53:44 61° ENE 21:57:59 10° N
Delta 142 4.4 21:49:21 10° NW 21:53:49 50° NNE 21:56:17 29° E
Cosmos 1553 Rocket 4.0 21:49:15 10° N 21:55:31 61° E 21:58:30 31° SSE
Cosmos 1417 Rocket 4.4 21:49:41 10° N 21:55:57 87° E 22:00:35 20° S
Envisat 4.1 21:56:35 26° ENE 21:56:39 26° ENE 22:00:49 10° NNE
Cosmos 2322 Rocket 2.4 21:52:57 10° N 21:58:24 50° ENE 21:59:50 40° ESE
FENGYUN 3A 3.9 21:55:47 17° S 21:59:54 66° WSW 22:05:17 10° NNW
ERS-1 Rocket 3.1 21:59:12 43° ESE 22:00:25 54° ENE 22:05:18 10° N
H-2A R/B 2.8 22:05:12 40° ENE 22:05:12 40° ENE 22:09:12 10° N
Meteor 2-20 4.4 22:00:59 10° S 22:07:10 85° W 22:13:18 10° N
Cosmos 1980 Rocket 3.4 22:01:56 10° NW 22:07:10 39° WSW 22:11:24 15° SSW
Cosmos 2360 Rocket 3.9 22:04:10 10° NNE 22:07:20 17° ENE 22:07:20 17° ENE
SL-16 R/B 2.2 22:03:39 10° N 22:09:14 60° ENE 22:10:20 51° ESE
Cosmos 1674 2.7 22:11:45 78° W 22:11:47 78° W 22:15:37 10° N
Sakura Rocket 2.7 22:09:34 10° WSW 22:13:56 77° NNW 22:13:56 77° NNW
GPS 2-04 Rocket1 4.2 22:12:20 10° NW 22:16:08 28° NNE 22:16:24 28° NNE
GPS 2-12 Rocket1 3.2 22:12:54 10° W 22:17:22 64° N 22:17:47 60° NNE
CZ-3C R/B 3.9 21:19:37 10° SW 22:18:21 40° S 22:21:47 35° SSE
UNK 4.4 22:13:27 10° NNE 22:19:42 69° ESE 22:21:45 44° S
Cosmos 1328 Rocket 3.7 22:15:25 10° N 22:19:50 69° W 22:20:20 62° SW
Nadezhda 2 Rocket 4.4 22:20:13 55° SE 22:21:14 63° E 22:27:15 10° NNE
Cosmos 1939 Rocket 3.7 22:22:28 42° NNE 22:22:28 42° NNE 22:25:12 10° N
NOSS 3-1 (C) 3.5 22:17:51 10° SSW 22:23:27 66° WNW 22:29:23 10° NNE
ATLAS CENTAUR R/B 2.2 22:24:17 10° NW 22:27:54 44° W 22:27:54 44° W
Hubble Space Telescope 1.6 22:25:29 10° WSW 22:28:35 47° W 22:28:35 47° W
Cosmos 1437 Rocket 4.4 22:38:48 10° NNW 22:40:57 31° NNW 22:40:57 31° NNW
CZ-4B R/B 4.1 22:53:29 10° N 22:57:51 54° NW 22:57:51 54° NW
ATLAS 2AS CENTAUR R/B 3.7 23:50:45 46° N 23:50:45 46° N 23:56:18 10° NNE
Cosmos 2360 Rocket 4.2 23:46:38 10° NW 23:49:08 24° NW 23:49:08 24° NW
